Weather History for Huron, SD

Change the Weather History Date:

Friday, May 31, 2013

  Actual Average Record
Temperature  
Mean Temperature 61 °F 63 °F  
Max Temperature 66 °F 74 °F 101 °F (1934)
Min Temperature 55 °F 51 °F 31 °F (1964)
Degree Days  
Heating Degree Days 4 4  
Month to date heating degree days 261 243  
Since 1 July heating degree days 8142 7621  
Cooling Degree Days 0 2  
Month to date cooling degree days 38 29  
Year to date cooling degree days 38 33  
Growing Degree Days 10 (Base 50)    
Moisture  
Dew Point 55 °F    
Average Humidity 86    
Maximum Humidity 100    
Minimum Humidity 72    
Precipitation  
Precipitation 0.24 in 0.12 in 2.94 in (1945)
Month to date precipitation 5.49 3.11  
Year to date precipitation 10.59 7.98  
Snow  
Snow 0.00 in 0.00 in 0.00 in ()
Month to date snowfall 0.0 T  
Since 1 July snowfall 60.1 43.9  
Snow Depth 0.00 in    
Sea Level Pressure  
Sea Level Pressure 29.41 in    
Wind  
Wind Speed 16 mph (SW)    
Max Wind Speed 23 mph    
Max Gust Speed 31 mph    
Visibility 9 miles    
Events Rain    
T = Trace of Precipitation, MM = Missing Value Source: NWS Daily Summary

Daily Weather History Graph

Daily Weather History Graph

Search for Another Location

Airport:

Trip Planner

Search our weather history database for the weather conditions in past years. The results will help you decide how hot, cold, wet, or windy it might be!

Date:

Astronomy

May. 31, 2013 Rise Set
Actual Time 5:52 AM CDT 9:09 PM CDT
Civil Twilight 5:16 AM CDT 9:45 PM CDT
Nautical Twilight 4:30 AM CDT 10:31 PM CDT
Astronomical Twilight 3:32 AM CDT 11:29 PM CDT
Moon 1:34 AM CDT (5/31) 1:21 PM CDT (5/31)
Length of Visible Light 16h 28m
Length of Day
15h 17m
Waning Gibbous, 51% of the Moon is Illuminated
May 31
Waning Gibbous
May 31
Last Quarter
Jun 8
New
Jun 16
First Quarter
Jun 23
Full

Hourly Weather History & Observations

Time (CDT) Temp. Dew Point Humidity Pressure Visibility Wind Dir Wind Speed Gust Speed Precip Events Conditions
12:55 AM 57.9 °F 48.0 °F 70% 29.36 in 10.0 mi South 11.5 mph 20.7 mph N/A   Clear
1:55 AM 59.0 °F 50.0 °F 72% 29.34 in 10.0 mi South 15.0 mph 23.0 mph N/A   Overcast
2:09 AM 59.0 °F 51.8 °F 77% 29.37 in 10.0 mi SSW 18.4 mph 28.8 mph N/A   Overcast
2:42 AM 57.2 °F 53.6 °F 88% 29.34 in 10.0 mi South 15.0 mph 28.8 mph N/A   Overcast
2:55 AM 57.0 °F 53.1 °F 87% 29.32 in 10.0 mi SSW 19.6 mph 31.1 mph N/A   Overcast
3:55 AM 55.0 °F 54.0 °F 96% 29.30 in 9.0 mi SSW 18.4 mph 28.8 mph 0.01 in Rain Light Rain
4:05 AM 55.4 °F 53.6 °F 94% 29.32 in 7.0 mi SSW 18.4 mph 25.3 mph 0.02 in Rain Rain
4:55 AM 55.9 °F 55.0 °F 97% 29.31 in 10.0 mi SW 20.7 mph 25.3 mph 0.04 in Rain Light Rain
5:35 AM 55.4 °F 55.4 °F 100% 29.33 in 5.0 mi SW 18.4 mph 25.3 mph 0.05 in Rain Light Rain
5:52 AM 55.4 °F 55.4 °F 100% 29.33 in 10.0 mi SW 15.0 mph 26.5 mph 0.07 in Rain Light Rain
5:55 AM 55.9 °F 55.0 °F 97% 29.31 in 10.0 mi WSW 19.6 mph 29.9 mph 0.07 in Rain Light Rain
6:55 AM 55.0 °F 54.0 °F 96% 29.33 in 8.0 mi WSW 19.6 mph 29.9 mph 0.00 in Rain Light Rain
7:45 AM 55.4 °F 53.6 °F 94% 29.34 in 10.0 mi SW 16.1 mph 24.2 mph 0.07 in   Overcast
7:55 AM 55.9 °F 53.1 °F 90% 29.33 in 10.0 mi SW 12.7 mph - 0.07 in   Overcast
8:55 AM 57.9 °F 53.1 °F 84% 29.34 in 10.0 mi WSW 16.1 mph 21.9 mph N/A   Overcast
9:55 AM 59.0 °F 52.0 °F 78% 29.37 in 10.0 mi WSW 17.3 mph 25.3 mph N/A   Overcast
10:55 AM 57.9 °F 53.1 °F 84% 29.39 in 10.0 mi SW 15.0 mph - N/A   Overcast
11:55 AM 57.9 °F 54.0 °F 87% 29.41 in 6.0 mi SW 18.4 mph 24.2 mph 0.00 in Rain Light Rain
12:55 PM 59.0 °F 55.0 °F 87% 29.42 in 10.0 mi SW 13.8 mph 26.5 mph 0.00 in   Overcast
1:55 PM 60.1 °F 55.9 °F 86% 29.43 in 10.0 mi SW 13.8 mph 21.9 mph N/A   Overcast
2:55 PM 61.0 °F 55.0 °F 81% 29.43 in 10.0 mi SW 18.4 mph 26.5 mph N/A   Overcast
3:55 PM 61.0 °F 55.9 °F 83% 29.45 in 10.0 mi SW 18.4 mph 27.6 mph 0.00 in   Overcast
4:55 PM 64.0 °F 57.0 °F 78% 29.44 in 10.0 mi SW 15.0 mph 21.9 mph N/A   Overcast
5:55 PM 64.9 °F 57.0 °F 75% 29.46 in 10.0 mi WSW 16.1 mph 24.2 mph N/A   Overcast
6:13 PM 64.4 °F 57.2 °F 77% 29.46 in 10.0 mi WSW 13.8 mph - N/A   Overcast
6:55 PM 62.1 °F 57.0 °F 84% 29.46 in 10.0 mi WSW 12.7 mph 20.7 mph 0.00 in Rain Light Rain
7:40 PM 62.6 °F 57.2 °F 82% 29.48 in 10.0 mi WSW 17.3 mph 20.7 mph 0.00 in   Overcast
7:55 PM 61.0 °F 57.0 °F 87% 29.48 in 10.0 mi WSW 15.0 mph 20.7 mph 0.00 in   Overcast
8:36 PM 60.8 °F 57.2 °F 88% 29.48 in 10.0 mi WSW 12.7 mph - 0.00 in Rain Light Rain
8:55 PM 60.1 °F 57.9 °F 93% 29.48 in 8.0 mi WSW 11.5 mph - 0.00 in   Overcast
9:05 PM 60.8 °F 57.2 °F 88% 29.49 in 7.0 mi WSW 11.5 mph - 0.01 in Rain Light Rain
9:55 PM 59.0 °F 57.9 °F 96% 29.49 in 10.0 mi WSW 9.2 mph - 0.02 in   Mostly Cloudy
10:02 PM 59.0 °F 57.2 °F 94% 29.50 in 9.0 mi WSW 10.4 mph - N/A   Mostly Cloudy
10:16 PM 60.8 °F 59.0 °F 94% 29.51 in 10.0 mi WSW 6.9 mph - 0.01 in   Mostly Cloudy
10:55 PM 61.0 °F 59.0 °F 93% 29.52 in 10.0 mi NW 15.0 mph - 0.01 in   Overcast
11:13 PM 60.8 °F 57.2 °F 88% 29.53 in 10.0 mi NNW 11.5 mph - N/A   Overcast
11:55 PM 59.0 °F 59.0 °F 100% 29.53 in 10.0 mi NW 13.8 mph - 0.01 in Rain Light Rain